#timestamp,LO_Frequency,Hit,StdDev 
1613725215.9,286046997.8,N
1613725235.7,286046998.0,N
1613725255.5,286046994.9,Y
1613725275.4,286047000.4,P
1613725295.2,286047000.2,N
1613725315.0,286047000.9,N
1613725315.9,286047000.9,N
1613725335.8,286047004.3,N
1613725355.6,286047003.1,N
1613725375.5,286047006.0,N
1613725395.3,286047007.4,N
1613725415.1,286047006.4,N
1613725435.9,286047006.6,N
1613725455.7,286047007.4,N
1613725475.5,286047004.8,N
1613725495.4,286047002.9,N
1613725515.2,286047005.5,N
1613725535.1,286047005.7,N
1613725536.0,286047005.7,N
1613725555.8,286047003.3,N
1613725575.6,286047002.9,N
1613725595.5,286047005.8,N
1613725615.3,286047007.4,N
1613725635.1,286047003.5,N
1613725655.9,286047002.0,N
1613725675.7,286047002.9,N
1613725695.6,286047005.8,N
1613725715.4,286047009.1,Y
1613725735.2,286047007.5,P
1613725755.1,286047007.4,P
1613725756.0,286047007.4,P
1613725775.8,286047006.3,Y
1613725795.6,286046999.9,P
1613725815.5,286046998.3,N
1613725835.3,286046998.9,N
1613725855.2,286046998.2,N
1613725875.9,286047001.1,N
1613725895.7,286047001.1,N
1613725915.6,286047001.0,N
1613725935.4,286047000.7,N
1613725955.2,286046999.6,N
1613725975.1,286046996.8,N
1613725976.0,286046996.8,N
1613725995.8,286046998.0,N
1613726015.7,286046995.3,N
1613726035.5,286046993.6,N
1613726055.3,286046991.0,Y
1613726075.2,286046990.5,P
1613726095.0,286046992.6,N
1613726095.9,286046992.6,N
1613726115.8,286046993.2,N
1613726135.6,286046988.6,Y
1613726155.4,286046994.9,P
1613726175.3,286046995.9,P
1613726195.1,286046995.1,P
1613726215.8,286046997.9,N
1613726235.7,286046999.6,N
1613726255.5,286046996.9,N
1613726275.4,286046996.7,N
1613726295.2,286046997.7,N
1613726315.0,286046997.7,N
1613726315.9,286046997.7,N
1613726335.8,286046999.1,N
1613726355.6,286047000.6,N
1613726375.5,286047001.7,N
1613726395.3,286047001.4,N
1613726415.1,286047002.1,N
1613726435.9,286047000.1,N
1613726455.7,286046998.8,N
1613726475.5,286046997.0,N
1613726495.4,286046998.9,N
1613726515.2,286046998.8,N
1613726535.0,286046996.6,N
1613726536.0,286046996.6,N
1613726555.8,286046996.6,N
1613726575.6,286046995.0,N
1613726595.5,286046997.2,N
1613726615.3,286046997.1,N
1613726635.1,286047000.3,N
1613726655.9,286047002.6,N
1613726675.7,286047004.4,N
1613726695.5,286047001.4,N
1613726715.4,286047003.6,N
1613726735.2,286047003.8,N
1613726755.1,286047002.9,N
1613726756.0,286047002.9,N
1613726775.8,286047003.9,N
1613726795.6,286047001.8,N
1613726815.5,286047002.8,N
1613726835.3,286046998.1,N
1613726855.2,286046996.5,N
1613726875.9,286046999.5,N
1613726895.7,286046996.8,N
1613726915.6,286046997.8,N
1613726935.4,286046997.8,N
1613726955.2,286046997.1,N
1613726975.1,286046996.7,N
1613726976.0,286046996.7,N
1613726995.8,286046997.4,N
1613727015.7,286046995.3,N
1613727035.5,286046995.0,N
1613727055.3,286046997.6,N
1613727075.2,286047000.9,N
1613727095.9,286047001.0,N
1613727115.7,286047001.2,N
1613727135.6,286047001.1,N
1613727155.4,286046998.6,N
1613727175.2,286046998.6,N
1613727195.1,286046999.6,N
1613727196.0,286046999.6,N
1613727215.8,286046999.6,N
1613727235.7,286046996.5,N
1613727255.5,286046996.9,N
1613727275.3,286046999.1,N
1613727295.2,286046997.5,N
1613727315.0,286046993.7,N
1613727315.9,286046993.7,N
1613727335.7,286046993.4,N
1613727355.6,286046995.5,N
1613727375.4,286046995.6,N
1613727395.3,286046994.9,N
1613727415.1,286046997.0,N
1613727416.0,286046997.0,N
1613727435.8,286046997.3,N
1613727455.7,286046997.4,N
1613727475.5,286046997.1,N
1613727495.3,286046999.4,N
1613727515.2,286046995.0,N
1613727535.0,286046995.9,N
1613727535.9,286046995.9,N
1613727555.8,286046997.4,N
1613727575.6,286046997.2,N
1613727595.4,286046995.7,N
1613727615.3,286046996.0,N
1613727635.1,286046994.9,N
1613727655.8,286046997.9,N
1613727675.7,286046997.9,N
1613727695.5,286046999.3,N
1613727715.4,286046997.5,N
1613727735.2,286046996.7,N
1613727755.0,286046998.9,N
1613727755.9,286046998.9,N
1613727775.8,286046998.5,N
1613727795.6,286046999.4,N
1613727815.4,286046997.3,N
1613727835.3,286046999.1,N
1613727855.1,286046999.0,N
1613727875.9,286046999.3,N
1613727895.7,286046998.5,N
1613727915.5,286047000.3,N
1613727935.4,286047000.3,N
1613727955.2,286046997.3,N
1613727975.0,286046997.8,N
1613727975.9,286046997.8,N
1613727995.8,286046995.3,Y
1613728015.6,286046999.4,P
1613728035.5,286046997.8,N
1613728055.3,286046999.1,N
1613728075.1,286046999.5,N
1613728095.9,286046997.0,Y
1613728115.7,286046998.2,P
1613728135.6,286047000.6,N
1613728155.4,286046998.4,N
1613728175.2,286046997.0,Y
1613728195.1,286046998.4,P
1613728196.0,286046998.4,P
1613728215.8,286046998.4,P
1613728235.6,286046999.0,Y
1613728255.5,286047002.4,P
1613728275.3,286047002.1,N
1613728295.2,286047004.0,N
1613728315.9,286047002.8,N
1613728335.7,286047000.1,N
1613728355.6,286047001.5,N
1613728375.4,286047001.4,N
1613728395.2,286047003.8,N
1613728415.1,286047005.2,Y
1613728416.0,286047005.2,P
1613728435.8,286047003.0,N
1613728455.7,286047003.7,N
1613728475.5,286047001.4,N
1613728495.3,286047003.7,N
1613728515.2,286047008.9,Y
1613728535.0,286047005.5,P
1613728535.9,286047005.5,P
1613728555.8,286047005.8,P
1613728575.6,286047007.3,Y
1613728595.4,286047002.6,P
1613728615.3,286047001.6,N
1613728635.1,286047005.1,P
1613728655.9,286047003.8,N
1613728675.7,286047003.9,N
1613728695.5,286047004.0,Y
1613728715.4,286046998.8,P
1613728735.2,286046998.6,N
1613728755.0,286047000.6,N
1613728755.9,286047000.6,N
1613728775.8,286046999.8,N
1613728795.6,286047004.3,N
